Regional Weather Roundup
Issued by NWS Northern Indiana

Home | Current Version | Previous Version | Graphics & Text | Print | Product List | Glossary On
Versions: 1 2 3 4 5 6 7 8 9 10 11 12 13 14 15 16 17 18 19 20 21 22 23 24 25 26 27 28 29 30 31 32 33 34 35 36 37 38 39 40 41 42 43 44 45 46 47 48 49 50
000
ASUS43 KIWX 250200
RWRIWX

KIWX WEATHER ROUNDUP
NATIONAL WEATHER SERVICE NORTHERN INDIANA
900 PM EST FRI FEB 24 2017

NOTE: "FAIR" INDICATES FEW OR NO CLOUDS BELOW 12,000 FEET WITH NO
SIGNIFICANT WEATHER AND/OR OBSTRUCTIONS TO VISIBILITY.

* THESE STATIONS ARE NOT UNDER NWS QUALITY CONTROL. THEY ALSO MAY NOT
  REPORT WEATHER SUCH AS PRECIPITATION OR FOG.

INZ001>027-250300-
NORTHERN INDIANA

CITY           SKY/WX    TMP DP  RH WIND       PRES   REMARKS
GARY*          CLOUDY    45  36  70 W22       29.56R
MICHIGAN CITY* CLOUDY    36  36 100 W6        29.58R
KNOX*          CLOUDY    43  28  56 W20G25    29.57R
SOUTH BEND     CLOUDY    38  38 100 W13       29.54R
ELKHART*       CLOUDY    41  39  93 W13       29.53R FOG
GOSHEN         LGT RAIN  46  41  82 W17       29.50S
ANGOLA*        CLOUDY    54  54 100 W13       29.48R
FORT WAYNE     RAIN      54  51  90 W16       29.50R FOG
PERU/GRISSOM   CLOUDY    46  44  91 W20G30    29.56R

$$
INZ028>050-250300-
CENTRAL INDIANA

CITY           SKY/WX    TMP DP  RH WIND       PRES   REMARKS
LAFAYETTE      CLOUDY    44  38  79 W21G31    29.61R
KOKOMO*        LGT RAIN  47  44  90 W20       29.56R
MUNCIE*        HVY RAIN  54  51  90 W15G28    29.56R FOG
INDIANAPOLIS   CLOUDY    50  45  83 W17       29.59F

$$
MIZ043>046-050>051-056>058-064>065-071>073-077>080-250300-
SOUTHWEST LOWER MICHIGAN

CITY           SKY/WX    TMP DP  RH WIND       PRES   REMARKS
BATTLE CREEK   LGT RAIN  49  46  90 W16       29.48R
BENTON HARBOR  CLOUDY    38  36  92 W14       29.53R FOG
COLDWATER*     LGT RAIN  51  50  98 W20       29.47R
HILLSDALE*     RAIN      55  54  94 SW13      29.44R
HOLLAND        FOG       39  38  96 SW10      29.46R VSB 1
GRAND RAPIDS   CLOUDY    46  42  86 W18       29.43F
KALAMAZOO      CLOUDY    45  39  79 W17G30    29.51R
STURGIS*       RAIN      46  44  95 W12       29.49R
THREE RIVERS*  CLOUDY    44  42  91 W20G26    29.49R

$$
OHZ001>008-015>018-024>025-250300-
NORTHWEST OHIO

CITY           SKY/WX    TMP DP  RH WIND       PRES   REMARKS
DEFIANCE       CLOUDY    59  54  83 S9        29.43F
FINDLAY        CLOUDY    64  52  64 S21G36    29.45F
TOLEDO EXPRESS CLOUDY    61  53  75 S12       29.44F
TOLEDO METCALF CLOUDY    62  53  72 S10       29.45F
LIMA           CLOUDY    62  53  72 S17       29.48S

$$
AND FOR LAKE MICHIGAN COASTAL AND OPEN LAKE BUOY OBSERVATIONS

STATION/POSITION TEMP    WIND        PRES    VSBY  WAVE
                 AIR SEA DIR/SP/G                  HT/PER
                 (F)     (DEG/KT/KT) (MB)    (MI)  (FT/S)
CALUMET HARBOR    42     240/ 11/ 17 1000.0F
MICHIGAN CITY     35     280/  9/ 10   N/A
BURNS HARBOR      36     290/  3/  5 1001.7R
SAINT JOSEPH      38     270/  9/ 12 1000.0

$$
&&




USA.gov is the U.S. government's official web portal to all federal, state and local government web resources and services.